(88046) = 2000 VM5 = 1997 EU55

Discovered at Socorro on 2000-11-01 by LINEAR.

Orbit

Orbit type: Main Belt

Note: WebGL enabled browser required.

epoch2024-03-31.0
epoch JD2460400.5
perihelion date2018-11-23.73939
perihelion JD2458446.23939
argument of perihelion (°)140.77622
ascending node (°)17.14581
inclination (°)0.87582
eccentricity0.1530550
perihelion distance (AU)2.6317436
Tisserand w.r.t. Jupiter3.2
ΔV w.r.t. Earth (km/sec)10.2
semimajor axis (AU)3.1073371
mean anomaly (°)351.64445
mean daily motion (°/day)0.17993730
aphelion distance (AU)3.583
period (years)5.48
P-vector [x]-0.92665146
P-vector [y]0.34094255
P-vector [z]0.15835166
Q-vector [x]-0.37589462
Q-vector [y]-0.84541656
Q-vector [z]-0.37943915
absolute magnitude14.59
phase slope0.15
uncertainty0
referenceMPEC 2024-F14
observations used1481
oppositions21
arc length (days)10761
first opposition used1994
last opposition used2024
residual rms (arc-secs)0.68
perturbers coarse indicatorM-v
perturbers precise indicator003Ek
first observation date used1994-09-30.0
last observation date used2024-03-17.0
computer nameMPCLINUX
JD of orbit computation2456847.628694
perihelion JD uncertainty (days)5.8275E-05
argument of perihelion uncertainty (°)1.7798E-04
ascending node uncertainty (°)1.7767E-04
inclination uncertainty (°)3.8723E-06
eccentricity uncertainty 3.3649E-08
perihelion distance uncertainty (AU)1.0129E-07
Minimum Orbit Intersection Distances (in AU)
for orbit epoch: 2460400.5, reference: E2024-GF4
Mercury2.26015
Venus1.91399
Earth1.64149
Mars0.96704
Jupiter1.40181
Saturn5.91833
Uranus15.802
Neptune26.348

Observations

1496 total observations over interval: 1994 09 30.17224 – 2024 03 17.339884
These data are available for download (format description).

Date (UT) J2000 RA J2000 Dec Magn Location Ref
1994 09 30.17224 00 11 10.67 +00 52 57.8 19.4 V 691 – Steward Observatory, Kitt Peak-Spacewatch MPS 35774
1994 09 30.19532 00 11 09.60 +00 52 51.9   691 – Steward Observatory, Kitt Peak-Spacewatch MPS 35774
1994 09 30.21841 00 11 08.62 +00 52 46.0   691 – Steward Observatory, Kitt Peak-Spacewatch MPS 35774
1997 03 09.26944 12 52 21.09 -05 16 11.7 18.6   809 – European Southern Observatory, La Silla MPS 35774
1997 03 09.28264 12 52 20.54 -05 16 09.0   809 – European Southern Observatory, La Silla MPS 35774
1997 03 09.29583 12 52 20.03 -05 16 06.6   809 – European Southern Observatory, La Silla MPS 35774
1997 03 10.26875 12 51 45.95 -05 12 52.2 18.5   809 – European Southern Observatory, La Silla MPC 30606
1997 03 10.28194 12 51 45.44 -05 12 50.2   809 – European Southern Observatory, La Silla MPC 30606
1997 03 10.29514 12 51 44.96 -05 12 47.8   809 – European Southern Observatory, La Silla MPC 30606
1997 03 11.19653 12 51 12.88 -05 09 41.3   809 – European Southern Observatory, La Silla MPC 30606
1997 03 11.20972 12 51 12.37 -05 09 39.1   809 – European Southern Observatory, La Silla MPC 30606
1997 03 11.22292 12 51 11.84 -05 09 37.2   809 – European Southern Observatory, La Silla MPC 30606
2000 11 01.27407 02 24 19.77 +14 49 26.8 18.6   704 – Lincoln Laboratory ETS, New Mexico MPS 21687
2000 11 01.28804 02 24 19.00 +14 49 22.7 19.5   704 – Lincoln Laboratory ETS, New Mexico MPS 21687
2000 11 01.30192 02 24 18.39 +14 49 19.5 18.9   704 – Lincoln Laboratory ETS, New Mexico MPS 21687
2000 11 01.31579 02 24 17.70 +14 49 15.8 19.2   704 – Lincoln Laboratory ETS, New Mexico MPS 21687
2000 11 01.32966 02 24 16.96 +14 49 12.4 19.4   704 – Lincoln Laboratory ETS, New Mexico MPS 21687
2000 11 02.21901 02 23 33.67 +14 45 50.0 18.9   704 – Lincoln Laboratory ETS, New Mexico MPS 21687
2000 11 02.23287 02 23 32.94 +14 45 47.2 19.1   704 – Lincoln Laboratory ETS, New Mexico MPS 21687
2000 11 02.24644 02 23 32.26 +14 45 44.5 19.9   704 – Lincoln Laboratory ETS, New Mexico MPS 21687
2000 11 02.25999 02 23 31.58 +14 45 41.1 19.2   704 – Lincoln Laboratory ETS, New Mexico MPS 21687
2000 11 02.27408 02 23 30.87 +14 45 38.1 19.7   704 – Lincoln Laboratory ETS, New Mexico MPS 21687
2000 11 18.26644 02 11 10.16 +13 46 12.1 18.8 R 699 – Lowell Observatory-LONEOS MPS 34353
2000 11 18.28218 02 11 09.36 +13 46 08.5   699 – Lowell Observatory-LONEOS MPS 34353
2000 11 18.29791 02 11 08.67 +13 46 04.6   699 – Lowell Observatory-LONEOS MPS 34353
2000 11 18.31357 02 11 07.99 +13 46 02.5   699 – Lowell Observatory-LONEOS MPS 34353
2000 11 27.22776 02 05 31.01 +13 17 48.4 19.7   704 – Lincoln Laboratory ETS, New Mexico MPS 34353
2000 11 27.24217 02 05 30.55 +13 17 46.1 19.4   704 – Lincoln Laboratory ETS, New Mexico MPS 34353
2000 11 27.25659 02 05 30.01 +13 17 42.0 19.4   704 – Lincoln Laboratory ETS, New Mexico MPS 34353
2001 11 17.45269 09 17 25.14 +16 50 44.4 20.2   704 – Lincoln Laboratory ETS, New Mexico MPS 41833
2001 11 17.48135 09 17 26.41 +16 50 37.3 20.1   704 – Lincoln Laboratory ETS, New Mexico MPS 41833
2001 11 17.49574 09 17 26.99 +16 50 35.1 20.0   704 – Lincoln Laboratory ETS, New Mexico MPS 41833
2002 01 07.43060 09 27 01.62 +16 22 12.5 18.1 R 699 – Lowell Observatory-LONEOS MPS 49258
2002 01 07.44955 09 27 01.03 +16 22 15.5   699 – Lowell Observatory-LONEOS MPS 49258
2002 01 07.46855 09 27 00.52 +16 22 17.9   699 – Lowell Observatory-LONEOS MPS 49258
2002 01 07.48758 09 26 59.91 +16 22 21.2   699 – Lowell Observatory-LONEOS MPS 49258
2002 01 09.40206 09 26 04.41 +16 27 06.7 18.5   704 – Lincoln Laboratory ETS, New Mexico MPS 49258
2002 01 09.40655 09 26 04.53 +16 27 08.9 19.6   608 – Haleakala-AMOS MPS 49258
2002 01 09.41708 09 26 04.19 +16 27 10.5 19.4   608 – Haleakala-AMOS MPS 49258
2002 01 09.41733 09 26 03.94 +16 27 09.1 18.9   704 – Lincoln Laboratory ETS, New Mexico MPS 49258
2002 01 09.42759 09 26 03.85 +16 27 12.3 19.1   608 – Haleakala-AMOS MPS 49258
2002 01 09.43244 09 26 03.45 +16 27 11.4 18.9   704 – Lincoln Laboratory ETS, New Mexico MPS 49258
2002 01 09.44756 09 26 02.97 +16 27 14.2 18.8   704 – Lincoln Laboratory ETS, New Mexico MPS 49258
2002 01 09.46266 09 26 02.45 +16 27 15.9 19.1   704 – Lincoln Laboratory ETS, New Mexico MPS 49258
2002 01 09.61372 09 25 57.79 +16 27 41.1 19.5   608 – Haleakala-AMOS MPS 49258
2002 01 09.62405 09 25 57.44 +16 27 42.7 19.3   608 – Haleakala-AMOS MPS 49258
2002 01 09.63484 09 25 57.12 +16 27 44.6 19.5   608 – Haleakala-AMOS MPS 49258
2002 01 14.37880 09 23 16.35 +16 41 03.2 19.5   608 – Haleakala-AMOS MPS 49258
2002 01 14.38448 09 23 15.79 +16 41 04.5 18.2   704 – Lincoln Laboratory ETS, New Mexico MPS 49258
2002 01 14.38929 09 23 15.95 +16 41 05.5 19.6   608 – Haleakala-AMOS MPS 49258
2002 01 14.39966 09 23 15.19 +16 41 07.1 18.5   704 – Lincoln Laboratory ETS, New Mexico MPS 49258
2002 01 14.39974 09 23 15.51 +16 41 07.1 19.4   608 – Haleakala-AMOS MPS 49258
2002 01 14.41486 09 23 14.60 +16 41 09.5 18.6   704 – Lincoln Laboratory ETS, New Mexico MPS 49258
2002 01 14.43016 09 23 14.01 +16 41 12.5 18.3   704 – Lincoln Laboratory ETS, New Mexico MPS 49258
2002 01 14.44594 09 23 13.40 +16 41 15.1 17.8   704 – Lincoln Laboratory ETS, New Mexico MPS 49258
2002 01 16.51376 09 21 53.98 +16 47 41.4 19.0   608 – Haleakala-AMOS MPS 49258
2002 01 16.52468 09 21 53.52 +16 47 43.0 19.1   608 – Haleakala-AMOS MPS 49258
2002 01 16.53612 09 21 53.06 +16 47 44.9 19.2   608 – Haleakala-AMOS MPS 49258
2002 01 21.30007 09 18 32.31 +17 03 26.4 17.9   704 – Lincoln Laboratory ETS, New Mexico MPS 49258
2002 01 21.31505 09 18 31.59 +17 03 29.8 18.1   704 – Lincoln Laboratory ETS, New Mexico MPS 49258
2002 01 21.32997 09 18 30.93 +17 03 32.1 18.2   704 – Lincoln Laboratory ETS, New Mexico MPS 49258
2002 01 21.34494 09 18 30.16 +17 03 35.9 18.4   704 – Lincoln Laboratory ETS, New Mexico MPS 49258
2002 01 21.36024 09 18 29.47 +17 03 38.4 18.1   704 – Lincoln Laboratory ETS, New Mexico MPS 49258
2002 01 23.30965 09 17 01.02 +17 10 23.2 17.7   704 – Lincoln Laboratory ETS, New Mexico MPS 49258
2002 01 23.32704 09 17 00.20 +17 10 27.3 18.2   704 – Lincoln Laboratory ETS, New Mexico MPS 49258
2002 01 23.34236 09 16 59.44 +17 10 30.2 17.9   704 – Lincoln Laboratory ETS, New Mexico MPS 49258
2002 01 23.35818 09 16 58.68 +17 10 33.1 18.1   704 – Lincoln Laboratory ETS, New Mexico MPS 49258
2002 01 23.37317 09 16 57.97 +17 10 36.4 18.1   704 – Lincoln Laboratory ETS, New Mexico MPS 49258
2002 02 03.52425 09 07 47.19 +17 50 26.3 18.9   608 – Haleakala-AMOS MPS 49258
2002 02 03.53471 09 07 46.70 +17 50 27.5 19.1   608 – Haleakala-AMOS MPS 49258
2002 02 03.54493 09 07 46.15 +17 50 30.3 19.1   608 – Haleakala-AMOS MPS 49258
2002 02 05.29063 09 06 17.02 +17 56 36.8 17.6 R 699 – Lowell Observatory-LONEOS MPS 49258
2002 02 05.30162 09 06 16.43 +17 56 39.2 17.3   644 – Palomar Mountain/NEAT MPS 49258
2002 02 05.31599 09 06 15.66 +17 56 41.8   699 – Lowell Observatory-LONEOS MPS 49258
2002 02 05.32260 09 06 15.32 +17 56 43.4 17.5   644 – Palomar Mountain/NEAT MPS 49258
2002 02 05.34108 09 06 14.36 +17 56 47.1   699 – Lowell Observatory-LONEOS MPS 49258
2002 02 05.34378 09 06 14.19 +17 56 47.9 17.6   644 – Palomar Mountain/NEAT MPS 49258
2002 02 05.36621 09 06 12.98 +17 56 52.4   699 – Lowell Observatory-LONEOS MPS 49258
2002 02 07.31272 09 04 33.57 +18 03 35.0 18.0   704 – Lincoln Laboratory ETS, New Mexico MPS 49258
2002 02 07.32717 09 04 32.80 +18 03 38.2 18.1   704 – Lincoln Laboratory ETS, New Mexico MPS 49258
2002 02 07.34161 09 04 32.02 +18 03 40.9 17.9   704 – Lincoln Laboratory ETS, New Mexico MPS 49258
2002 02 07.35603 09 04 31.27 +18 03 43.7 18.0   704 – Lincoln Laboratory ETS, New Mexico MPS 49258
2002 02 07.37061 09 04 30.49 +18 03 46.8 18.2   704 – Lincoln Laboratory ETS, New Mexico MPS 49258
2002 02 08.23072 09 03 47.00 +18 06 41.2 17.8   704 – Lincoln Laboratory ETS, New Mexico MPS 49258
2002 02 08.24497 09 03 46.23 +18 06 44.0 18.0   704 – Lincoln Laboratory ETS, New Mexico MPS 49258
2002 02 08.25929 09 03 45.48 +18 06 47.0 17.9   704 – Lincoln Laboratory ETS, New Mexico MPS 49258
2002 02 08.27355 09 03 44.73 +18 06 50.1 17.9   704 – Lincoln Laboratory ETS, New Mexico MPS 49258
